QPF
0.03 0.03 0.03 0.03 0.03 0.03 0.02 0.02 0.02 0.02 0.02 0.03 0.03 0.04 0.06 0.05 0.06 0.05 0.03 0.03 0.03 0.03 0.03 0.03 0.03 0.02 0.02 0.03 0.02 0.02 0.02 0.03 0.02 0.03 0.04 0.04 0.05 0.04 0.04 0.04 0.05 0.05 0.04
0.01 0.01 0.02 0.03 0.03 0.03 0.02 0.01 0.01 0.01 0.02 0.02 0.02 0.04 0.05 0.04 0.04 0.04 0.04 0.03 0.04 0.03 0.04 0.04 0.04 0.04 0.03 0.02 0.02 0.02 0.03 0.03 0.02 0.02 0.03 0.04 0.04 0.04 0.03 0.04 0.04 0.06 0.04
0.03 0.02 0.02 0.01 0.02 0.02 0.03 0.02 0.02 0.03 0.03 0.02 0.02 0.02 0.02 0.02 0.02 0.03 0.03 0.03 0.03 0.04 0.05 0.05 0.04 0.05 0.05 0.04 0.05 0.04 0.03 0.03 0.02 0.02 0.03 0.03 0.03 0.03 0.03 0.03 0.02 0.04 0.04
0.06 0.04 0.03 0.01 0.01 0.01 0.02 0.03 0.03 0.05 0.04 0.02 0.02 0.02 0.02 0.02 0.02 0.03 0.04 0.04 0.03 0.03 0.03 0.04 0.04 0.05 0.06 0.04 0.05 0.04 0.04 0.03 0.02 0.02 0.02 0.02 0.01 0.01 0.02 0.03 0.02 0.02 0.03
0.03 0.04 0.03 0.02 0.01 0.02 0.03 0.03 0.04 0.05 0.05 0.04 0.03 0.03 0.03 0.04 0.03 0.03 0.05 0.05 0.03 0.03 0.03 0.03 0.04 0.05 0.06 0.06 0.06 0.05 0.05 0.04 0.03 0.02 0.02 0.02 0.02 0.01 0.02 0.02 0.02 0.02 0.02
0.01 0.02 0.01 0.01 0.01 0.02 0.03 0.03 0.04 0.04 0.05 0.05 0.03 0.03 0.05 0.04 0.04 0.06 0.06 0.06 0.04 0.04 0.04 0.04 0.04 0.04 0.06 0.07 0.07 0.06 0.06 0.06 0.05 0.04 0.04 0.04 0.04 0.03 0.02 0.01 0.01 0.02 0.02
0.01 0.01 0.01 0.01 0.00 0.01 0.02 0.03 0.03 0.03 0.04 0.04 0.03 0.03 0.03 0.04 0.05 0.06 0.05 0.07 0.05 0.04 0.04 0.05 0.06 0.06 0.05 0.05 0.05 0.04 0.05 0.06 0.06 0.05 0.05 0.06 0.05 0.04 0.02 0.01 0.01 0.01 0.01
0.01 0.01 0.01 0.00 0.00 0.01 0.01 0.02 0.02 0.02 0.02 0.03 0.04 0.05 0.03 0.04 0.07 0.08 0.05 0.06 0.07 0.06 0.03 0.04 0.07 0.08 0.07 0.06 0.05 0.04 0.03 0.05 0.06 0.05 0.05 0.05 0.04 0.03 0.02 0.01 0.01 0.01 0.01
0.01 0.01 0.01 0.01 0.01 0.01 0.01 0.01 0.02 0.02 0.02 0.04 0.05 0.07 0.05 0.03 0.04 0.06 0.06 0.06 0.05 0.06 0.05 0.04 0.04 0.05 0.06 0.07 0.06 0.06 0.04 0.03 0.05 0.06 0.06 0.05 0.03 0.02 0.02 0.02 0.01 0.01 0.01
0.02 0.02 0.02 0.01 0.01 0.01 0.02 0.02 0.05 0.04 0.03 0.05 0.05 0.04 0.04 0.05 0.05 0.04 0.03 0.04 0.04 0.05 0.06 0.05 0.04 0.04 0.06 0.08 0.10 0.09 0.05 0.03 0.02 0.04 0.04 0.04 0.03 0.02 0.02 0.02 0.02 0.02 0.03
0.02 0.02 0.02 0.03 0.03 0.03 0.04 0.05 0.06 0.05 0.04 0.03 0.04 0.04 0.03 0.05 0.05 0.04 0.02 0.02 0.02 0.02 0.03 0.04 0.05 0.04 0.06 0.10 0.16 0.13 0.06 0.04 0.04 0.03 0.03 0.03 0.04 0.02 0.02 0.01 0.01 0.02 0.04
0.01 0.02 0.01 0.02 0.03 0.03 0.04 0.05 0.06 0.05 0.04 0.03 0.03 0.04 0.03 0.04 0.03 0.04 0.03 0.01 0.01 0.01 0.01 0.02 0.02 0.02 0.04 0.07 0.10 0.08 0.06 0.06 0.07 0.05 0.03 0.02 0.02 0.02 0.02 0.02 0.02 0.02 0.03
0.02 0.02 0.02 0.03 0.03 0.03 0.04 0.05 0.05 0.04 0.04 0.04 0.03 0.03 0.03 0.03 0.03 0.03 0.03 0.02 0.00 0.00 0.01 0.01 0.02 0.01 0.02 0.03 0.04 0.05 0.06 0.06 0.05 0.06 0.06 0.05 0.03 0.02 0.01 0.02 0.02 0.02 0.03
0.02 0.02 0.03 0.04 0.04 0.04 0.05 0.06 0.05 0.04 0.04 0.04 0.03 0.03 0.03 0.03 0.04 0.04 0.04 0.03 0.02 0.01 0.01 0.01 0.01 0.02 0.02 0.02 0.03 0.05 0.04 0.04 0.04 0.04 0.05 0.04 0.03 0.02 0.01 0.01 0.01 0.01 0.01
0.02 0.02 0.03 0.04 0.04 0.06 0.07 0.07 0.06 0.05 0.04 0.04 0.04 0.04 0.04 0.04 0.05 0.06 0.06 0.05 0.05 0.04 0.02 0.02 0.02 0.02 0.03 0.02 0.03 0.04 0.03 0.04 0.05 0.04 0.03 0.02 0.02 0.02 0.01 0.01 0.00 0.00 0.00
0.03 0.03 0.03 0.04 0.04 0.05 0.06 0.07 0.06 0.05 0.04 0.04 0.04 0.04 0.04 0.05 0.04 0.04 0.04 0.04 0.05 0.04 0.02 0.02 0.04 0.05 0.05 0.04 0.03 0.04 0.04 0.04 0.04 0.04 0.03 0.03 0.02 0.02 0.01 0.00 0.00 0.00 0.00
0.04 0.04 0.03 0.04 0.03 0.03 0.04 0.06 0.06 0.06 0.06 0.05 0.06 0.07 0.05 0.04 0.03 0.03 0.03 0.03 0.04 0.05 0.03 0.01 0.01 0.03 0.03 0.02 0.03 0.04 0.05 0.05 0.04 0.04 0.03 0.02 0.02 0.02 0.01 0.01 0.00 0.00 0.00
0.04 0.05 0.04 0.04 0.04 0.04 0.04 0.05 0.07 0.08 0.07 0.06 0.05 0.06 0.05 0.03 0.03 0.04 0.04 0.04 0.03 0.04 0.04 0.02 0.02 0.02 0.02 0.02 0.03 0.04 0.04 0.03 0.02 0.02 0.02 0.02 0.01 0.01 0.01 0.01 0.00 0.00 0.00
0.04 0.04 0.04 0.04 0.04 0.04 0.04 0.04 0.05 0.05 0.04 0.04 0.03 0.03 0.04 0.04 0.03 0.04 0.04 0.04 0.04 0.04 0.04 0.03 0.02 0.03 0.04 0.03 0.05 0.04 0.04 0.02 0.02 0.02 0.02 0.01 0.01 0.02 0.01 0.01 0.01 0.01 0.01
0.03 0.03 0.03 0.03 0.04 0.04 0.04 0.05 0.04 0.02 0.02 0.02 0.02 0.02 0.03 0.04 0.04 0.04 0.04 0.04 0.04 0.04 0.05 0.05 0.03 0.03 0.04 0.04 0.05 0.05 0.05 0.03 0.02 0.02 0.03 0.02 0.02 0.02 0.02 0.01 0.01 0.02 0.02
0.03 0.03 0.03 0.03 0.03 0.03 0.02 0.03 0.03 0.02 0.01 0.01 0.01 0.01 0.02 0.02 0.03 0.04 0.04 0.03 0.04 0.04 0.04 0.04 0.04 0.05 0.05 0.04 0.04 0.04 0.06 0.05 0.03 0.03 0.04 0.03 0.03 0.03 0.02 0.02 0.01 0.02 0.03
0.03 0.03 0.02 0.02 0.02 0.02 0.02 0.03 0.02 0.01 0.01 0.01 0.01 0.01 0.01 0.02 0.02 0.03 0.03 0.03 0.04 0.04 0.04 0.04 0.04 0.04 0.04 0.04 0.04 0.05 0.05 0.05 0.03 0.02 0.04 0.03 0.03 0.03 0.03 0.03 0.03 0.04 0.04
0.05 0.04 0.03 0.02 0.02 0.02 0.02 0.01 0.01 0.01 0.01 0.01 0.01 0.01 0.01 0.02 0.02 0.02 0.02 0.02 0.02 0.03 0.04 0.05 0.04 0.03 0.03 0.03 0.05 0.05 0.04 0.04 0.03 0.03 0.03 0.02 0.03 0.04 0.04 0.03 0.03 0.04 0.04
0.05 0.04 0.03 0.02 0.02 0.02 0.02 0.02 0.02 0.02 0.01 0.01 0.01 0.01 0.01 0.02 0.03 0.04 0.04 0.02 0.02 0.02 0.03 0.04 0.04 0.04 0.05 0.05 0.06 0.06 0.05 0.04 0.03 0.03 0.04 0.03 0.03 0.03 0.04 0.04 0.03 0.04 0.05
0.06 0.05 0.04 0.03 0.02 0.03 0.04 0.04 0.03 0.02 0.01 0.01 0.01 0.02 0.02 0.02 0.03 0.05 0.04 0.04 0.02 0.02 0.04 0.04 0.04 0.04 0.06 0.07 0.08 0.07 0.05 0.04 0.03 0.02 0.03 0.04 0.03 0.04 0.04 0.05 0.04 0.05 0.07
0.13 0.10 0.07 0.05 0.04 0.04 0.05 0.05 0.04 0.02 0.01 0.01 0.01 0.02 0.02 0.03 0.03 0.04 0.03 0.03 0.02 0.02 0.02 0.03 0.04 0.04 0.04 0.06 0.07 0.06 0.05 0.04 0.03 0.02 0.02 0.04 0.04 0.04 0.03 0.03 0.04 0.06 0.09
MSLP
1014.69 1014.85 1014.97 1015.09 1015.21 1015.36 1015.55 1015.77 1015.99 1016.20 1016.39 1016.52 1016.60 1016.64 1016.66 1016.67 1016.70 1016.77 1016.86 1016.98 1017.12 1017.25 1017.37 1017.47 1017.55 1017.61 1017.67 1017.73 1017.81 1017.90 1018.02 1018.16 1018.31 1018.48 1018.66 1018.83 1019.00 1019.15 1019.27 1019.37 1019.44 1019.49 1019.53
1014.20 1014.37 1014.52 1014.67 1014.83 1015.02 1015.24 1015.48 1015.74 1015.98 1016.20 1016.37 1016.48 1016.55 1016.58 1016.59 1016.59 1016.61 1016.64 1016.71 1016.80 1016.90 1017.02 1017.13 1017.23 1017.32 1017.40 1017.47 1017.55 1017.63 1017.72 1017.84 1017.97 1018.13 1018.30 1018.49 1018.67 1018.84 1018.98 1019.08 1019.16 1019.20 1019.23
1013.54 1013.74 1013.94 1014.15 1014.37 1014.61 1014.87 1015.14 1015.42 1015.69 1015.92 1016.11 1016.25 1016.32 1016.35 1016.34 1016.31 1016.28 1016.26 1016.27 1016.31 1016.38 1016.49 1016.61 1016.75 1016.88 1016.99 1017.10 1017.18 1017.26 1017.34 1017.44 1017.55 1017.70 1017.87 1018.06 1018.25 1018.44 1018.60 1018.72 1018.81 1018.87 1018.91
1012.77 1013.01 1013.27 1013.55 1013.84 1014.14 1014.44 1014.75 1015.04 1015.31 1015.55 1015.74 1015.88 1015.96 1015.98 1015.95 1015.88 1015.80 1015.73 1015.68 1015.68 1015.72 1015.82 1015.96 1016.12 1016.29 1016.45 1016.59 1016.70 1016.79 1016.87 1016.95 1017.06 1017.18 1017.35 1017.54 1017.74 1017.94 1018.13 1018.28 1018.40 1018.49 1018.56
1011.95 1012.22 1012.55 1012.90 1013.26 1013.62 1013.97 1014.30 1014.60 1014.87 1015.09 1015.28 1015.41 1015.48 1015.49 1015.45 1015.36 1015.24 1015.12 1015.03 1014.98 1014.99 1015.07 1015.21 1015.39 1015.59 1015.79 1015.97 1016.11 1016.23 1016.31 1016.40 1016.49 1016.61 1016.76 1016.95 1017.16 1017.38 1017.58 1017.76 1017.92 1018.04 1018.14
1011.14 1011.44 1011.81 1012.22 1012.65 1013.07 1013.45 1013.79 1014.09 1014.35 1014.56 1014.73 1014.86 1014.93 1014.94 1014.89 1014.80 1014.66 1014.51 1014.38 1014.29 1014.26 1014.31 1014.43 1014.61 1014.83 1015.05 1015.26 1015.44 1015.57 1015.68 1015.78 1015.87 1015.99 1016.14 1016.32 1016.53 1016.75 1016.97 1017.18 1017.36 1017.52 1017.65
1010.40 1010.69 1011.08 1011.53 1012.00 1012.45 1012.86 1013.21 1013.51 1013.75 1013.96 1014.13 1014.26 1014.34 1014.38 1014.35 1014.26 1014.12 1013.95 1013.79 1013.66 1013.59 1013.59 1013.68 1013.84 1014.05 1014.28 1014.50 1014.70 1014.87 1015.00 1015.11 1015.22 1015.35 1015.50 1015.68 1015.89 1016.11 1016.33 1016.55 1016.74 1016.92 1017.08
1009.76 1010.01 1010.38 1010.83 1011.30 1011.76 1012.18 1012.54 1012.84 1013.09 1013.30 1013.48 1013.64 1013.75 1013.82 1013.83 1013.77 1013.65 1013.48 1013.30 1013.13 1013.01 1012.96 1012.99 1013.11 1013.28 1013.49 1013.72 1013.93 1014.12 1014.28 1014.42 1014.55 1014.69 1014.85 1015.04 1015.24 1015.45 1015.67 1015.88 1016.08 1016.26 1016.43
1009.23 1009.39 1009.70 1010.11 1010.55 1011.00 1011.41 1011.77 1012.07 1012.34 1012.57 1012.79 1012.99 1013.16 1013.29 1013.35 1013.34 1013.24 1013.09 1012.89 1012.68 1012.51 1012.40 1012.36 1012.41 1012.54 1012.71 1012.92 1013.13 1013.33 1013.52 1013.69 1013.85 1014.02 1014.19 1014.38 1014.58 1014.79 1014.99 1015.18 1015.37 1015.54 1015.71
1008.81 1008.85 1009.05 1009.37 1009.75 1010.16 1010.54 1010.90 1011.21 1011.50 1011.78 1012.04 1012.30 1012.54 1012.73 1012.85 1012.89 1012.84 1012.70 1012.50 1012.27 1012.05 1011.88 1011.77 1011.75 1011.80 1011.93 1012.10 1012.29 1012.50 1012.70 1012.90 1013.10 1013.29 1013.49 1013.70 1013.90 1014.10 1014.29 1014.46 1014.62 1014.78 1014.94
1008.47 1008.37 1008.43 1008.63 1008.93 1009.26 1009.62 1009.96 1010.28 1010.60 1010.92 1011.23 1011.55 1011.85 1012.10 1012.29 1012.38 1012.37 1012.26 1012.06 1011.82 1011.57 1011.34 1011.17 1011.08 1011.07 1011.13 1011.26 1011.42 1011.61 1011.82 1012.04 1012.26 1012.49 1012.72 1012.94 1013.16 1013.36 1013.54 1013.70 1013.85 1013.99 1014.13
1008.22 1007.96 1007.88 1007.94 1008.13 1008.38 1008.68 1009.00 1009.33 1009.66 1010.01 1010.37 1010.73 1011.07 1011.38 1011.61 1011.75 1011.77 1011.69 1011.51 1011.27 1011.00 1010.75 1010.53 1010.38 1010.31 1010.31 1010.38 1010.50 1010.67 1010.86 1011.08 1011.32 1011.57 1011.83 1012.08 1012.32 1012.54 1012.73 1012.90 1013.04 1013.17 1013.30
1008.06 1007.66 1007.43 1007.36 1007.42 1007.59 1007.82 1008.10 1008.41 1008.74 1009.10 1009.47 1009.85 1010.21 1010.53 1010.79 1010.96 1011.01 1010.96 1010.81 1010.59 1010.34 1010.08 1009.84 1009.65 1009.53 1009.47 1009.48 1009.55 1009.67 1009.83 1010.04 1010.27 1010.54 1010.82 1011.10 1011.37 1011.62 1011.84 1012.03 1012.19 1012.33 1012.47
1008.00 1007.49 1007.13 1006.94 1006.89 1006.96 1007.12 1007.34 1007.61 1007.91 1008.24 1008.59 1008.95 1009.30 1009.61 1009.86 1010.03 1010.11 1010.09 1009.98 1009.80 1009.57 1009.33 1009.10 1008.90 1008.74 1008.63 1008.57 1008.58 1008.64 1008.75 1008.92 1009.14 1009.40 1009.70 1010.01 1010.32 1010.61 1010.87 1011.10 1011.30 1011.47 1011.63
1008.08 1007.49 1007.05 1006.76 1006.62 1006.59 1006.66 1006.81 1007.01 1007.25 1007.52 1007.81 1008.11 1008.40 1008.66 1008.88 1009.04 1009.12 1009.13 1009.06 1008.93 1008.76 1008.56 1008.35 1008.15 1007.96 1007.81 1007.70 1007.63 1007.62 1007.67 1007.78 1007.97 1008.21 1008.51 1008.84 1009.18 1009.51 1009.83 1010.11 1010.36 1010.57 1010.77
1008.31 1007.70 1007.21 1006.86 1006.63 1006.53 1006.51 1006.57 1006.68 1006.83 1007.00 1007.19 1007.39 1007.59 1007.78 1007.95 1008.07 1008.15 1008.17 1008.14 1008.07 1007.95 1007.80 1007.63 1007.44 1007.25 1007.06 1006.90 1006.76 1006.67 1006.64 1006.69 1006.82 1007.03 1007.30 1007.64 1008.00 1008.37 1008.72 1009.05 1009.35 1009.62 1009.87
1008.70 1008.11 1007.61 1007.23 1006.95 1006.78 1006.68 1006.64 1006.64 1006.67 1006.73 1006.80 1006.88 1006.97 1007.06 1007.15 1007.22 1007.28 1007.31 1007.31 1007.28 1007.22 1007.12 1006.98 1006.82 1006.62 1006.41 1006.20 1006.00 1005.83 1005.73 1005.70 1005.76 1005.92 1006.16 1006.46 1006.82 1007.20 1007.58 1007.94 1008.28 1008.59 1008.88
1009.22 1008.67 1008.20 1007.82 1007.52 1007.29 1007.11 1006.98 1006.87 1006.78 1006.70 1006.64 1006.59 1006.56 1006.55 1006.55 1006.57 1006.60 1006.62 1006.64 1006.64 1006.61 1006.55 1006.45 1006.30 1006.10 1005.87 1005.62 1005.37 1005.14 1004.96 1004.86 1004.85 1004.93 1005.12 1005.38 1005.70 1006.05 1006.42 1006.79 1007.13 1007.47 1007.78
1009.79 1009.32 1008.90 1008.54 1008.23 1007.97 1007.73 1007.51 1007.30 1007.10 1006.90 1006.71 1006.54 1006.40 1006.29 1006.21 1006.17 1006.15 1006.15 1006.17 1006.18 1006.17 1006.12 1006.04 1005.90 1005.70 1005.45 1005.17 1004.88 1004.60 1004.36 1004.19 1004.11 1004.12 1004.22 1004.41 1004.66 1004.96 1005.28 1005.60 1005.93 1006.25 1006.57
1010.34 1009.95 1009.60 1009.28 1008.99 1008.70 1008.43 1008.14 1007.85 1007.55 1007.25 1006.96 1006.69 1006.46 1006.27 1006.12 1006.02 1005.96 1005.93 1005.92 1005.91 1005.89 1005.84 1005.75 1005.61 1005.41 1005.15 1004.85 1004.54 1004.22 1003.94 1003.71 1003.55 1003.48 1003.49 1003.58 1003.74 1003.94 1004.17 1004.42 1004.69 1004.97 1005.28
1010.80 1010.50 1010.22 1009.95 1009.67 1009.39 1009.09 1008.76 1008.41 1008.05 1007.68 1007.32 1007.00 1006.70 1006.46 1006.26 1006.11 1006.00 1005.93 1005.88 1005.84 1005.79 1005.71 1005.60 1005.44 1005.22 1004.96 1004.65 1004.32 1003.99 1003.67 1003.40 1003.17 1003.01 1002.93 1002.90 1002.93 1003.01 1003.13 1003.28 1003.46 1003.68 1003.94
1011.12 1010.89 1010.68 1010.45 1010.22 1009.95 1009.64 1009.30 1008.93 1008.53 1008.14 1007.75 1007.39 1007.07 1006.80 1006.57 1006.39 1006.24 1006.13 1006.03 1005.93 1005.83 1005.71 1005.56 1005.37 1005.14 1004.87 1004.57 1004.24 1003.89 1003.56 1003.24 1002.95 1002.71 1002.51 1002.36 1002.25 1002.19 1002.18 1002.21 1002.29 1002.44 1002.65
1011.29 1011.12 1010.96 1010.78 1010.58 1010.34 1010.05 1009.71 1009.34 1008.95 1008.56 1008.18 1007.83 1007.51 1007.24 1007.00 1006.80 1006.62 1006.46 1006.31 1006.16 1006.01 1005.83 1005.64 1005.42 1005.18 1004.90 1004.59 1004.26 1003.92 1003.56 1003.21 1002.86 1002.53 1002.22 1001.94 1001.70 1001.49 1001.34 1001.25 1001.24 1001.31 1001.47
1011.32 1011.19 1011.07 1010.94 1010.77 1010.56 1010.30 1009.99 1009.64 1009.28 1008.92 1008.58 1008.26 1007.97 1007.71 1007.48 1007.27 1007.08 1006.88 1006.69 1006.48 1006.27 1006.05 1005.82 1005.57 1005.31 1005.03 1004.72 1004.40 1004.05 1003.68 1003.28 1002.88 1002.46 1002.04 1001.64 1001.26 1000.91 1000.63 1000.43 1000.32 1000.32 1000.44
1011.26 1011.16 1011.07 1010.97 1010.83 1010.65 1010.42 1010.14 1009.84 1009.52 1009.21 1008.91 1008.63 1008.39 1008.16 1007.95 1007.74 1007.53 1007.31 1007.08 1006.84 1006.58 1006.32 1006.06 1005.79 1005.51 1005.23 1004.93 1004.60 1004.25 1003.85 1003.42 1002.95 1002.45 1001.93 1001.40 1000.89 1000.43 1000.03 999.72 999.53 999.48 999.56
1011.18 1011.09 1011.02 1010.93 1010.81 1010.65 1010.45 1010.21 1009.95 1009.67 1009.40 1009.15 1008.92 1008.71 1008.52 1008.32 1008.12 1007.91 1007.68 1007.43 1007.16 1006.88 1006.59 1006.31 1006.03 1005.75 1005.47 1005.17 1004.84 1004.47 1004.05 1003.58 1003.04 1002.46 1001.84 1001.20 1000.58 999.99 999.49 999.09 998.82 998.71 998.76
Thickness
5765 5764 5764 5763 5762 5762 5761 5760 5760 5759 5759 5759 5758 5758 5758 5757 5756 5756 5755 5755 5754 5753 5752 5751 5749 5748 5746 5745 5743 5741 5740 5739 5737 5735 5734 5732 5730 5729 5727 5726 5724 5723 5722
5767 5766 5765 5764 5763 5763 5762 5761 5761 5760 5759 5759 5759 5759 5759 5758 5757 5756 5756 5755 5754 5753 5752 5751 5750 5749 5747 5745 5744 5742 5740 5739 5737 5736 5734 5732 5731 5729 5728 5726 5724 5723 5721
5769 5768 5766 5765 5764 5764 5763 5762 5761 5760 5760 5759 5759 5759 5758 5758 5758 5757 5757 5756 5755 5754 5753 5752 5751 5749 5748 5747 5745 5743 5741 5739 5738 5736 5734 5732 5731 5729 5728 5726 5724 5723 5722
5770 5769 5767 5766 5766 5765 5764 5763 5761 5759 5758 5758 5757 5758 5758 5758 5758 5758 5757 5757 5756 5755 5754 5753 5751 5750 5748 5747 5745 5744 5742 5740 5738 5736 5734 5733 5731 5730 5728 5726 5725 5723 5722
5772 5770 5769 5768 5767 5766 5764 5763 5761 5759 5757 5757 5757 5757 5758 5758 5758 5758 5757 5757 5756 5755 5755 5753 5752 5751 5749 5747 5746 5744 5742 5740 5738 5736 5734 5733 5731 5730 5728 5727 5725 5724 5722
5773 5771 5770 5769 5768 5765 5763 5762 5760 5759 5758 5757 5757 5757 5757 5758 5759 5758 5758 5758 5756 5755 5755 5754 5752 5751 5750 5748 5746 5744 5742 5740 5738 5736 5735 5733 5732 5730 5729 5727 5726 5724 5723
5775 5773 5771 5769 5768 5765 5763 5762 5760 5758 5756 5756 5752 5750 5754 5757 5758 5759 5758 5757 5756 5756 5755 5754 5753 5752 5751 5749 5747 5745 5743 5741 5739 5737 5736 5734 5732 5731 5729 5728 5726 5724 5723
5776 5774 5772 5770 5768 5766 5763 5762 5760 5756 5755 5755 5749 5743 5741 5745 5752 5758 5757 5757 5756 5755 5755 5754 5753 5752 5751 5749 5748 5745 5743 5742 5740 5738 5736 5735 5733 5731 5730 5728 5726 5724 5723
5777 5776 5774 5771 5769 5766 5763 5762 5761 5757 5753 5753 5752 5745 5737 5734 5741 5750 5754 5755 5755 5754 5754 5753 5752 5752 5751 5749 5748 5746 5745 5743 5741 5739 5737 5736 5734 5732 5730 5728 5727 5725 5723
5778 5776 5774 5772 5769 5767 5765 5763 5762 5759 5755 5751 5751 5751 5749 5745 5739 5738 5746 5751 5753 5752 5752 5752 5751 5751 5750 5749 5748 5747 5745 5744 5742 5739 5738 5736 5734 5732 5730 5728 5727 5725 5724
5777 5776 5775 5772 5770 5767 5766 5764 5762 5760 5757 5753 5751 5750 5748 5746 5744 5738 5736 5742 5746 5750 5751 5751 5751 5750 5750 5749 5747 5746 5745 5743 5741 5739 5737 5735 5734 5732 5731 5729 5727 5725 5724
5776 5776 5775 5773 5770 5768 5766 5764 5762 5760 5758 5756 5753 5751 5748 5745 5742 5740 5736 5737 5738 5744 5749 5750 5750 5749 5749 5748 5747 5745 5744 5742 5740 5738 5736 5734 5733 5732 5730 5729 5727 5725 5723
5774 5775 5775 5772 5770 5768 5766 5763 5761 5759 5758 5755 5754 5752 5750 5749 5747 5743 5739 5736 5736 5740 5744 5746 5748 5748 5747 5745 5745 5744 5742 5741 5739 5737 5735 5733 5732 5731 5729 5727 5726 5724 5722
5775 5775 5774 5772 5769 5767 5765 5762 5759 5758 5757 5755 5754 5752 5750 5749 5748 5746 5742 5737 5733 5733 5737 5740 5744 5745 5744 5743 5743 5741 5740 5739 5737 5735 5733 5731 5730 5729 5727 5726 5724 5722 5720
5775 5774 5772 5770 5768 5765 5763 5761 5758 5756 5755 5753 5751 5750 5748 5748 5748 5747 5745 5742 5734 5727 5729 5735 5738 5742 5742 5741 5740 5739 5738 5736 5735 5733 5731 5729 5728 5726 5725 5723 5722 5720 5718
5773 5772 5770 5768 5765 5763 5761 5758 5755 5754 5752 5750 5749 5748 5746 5746 5746 5745 5744 5742 5739 5733 5729 5734 5736 5738 5738 5737 5737 5736 5735 5733 5732 5730 5728 5727 5725 5723 5722 5720 5719 5717 5715
5771 5769 5767 5765 5763 5760 5758 5755 5753 5751 5749 5748 5747 5745 5744 5743 5742 5742 5741 5740 5737 5734 5729 5732 5734 5735 5734 5733 5733 5732 5730 5729 5728 5727 5725 5723 5722 5720 5718 5717 5715 5713 5711
5768 5766 5763 5761 5759 5757 5755 5753 5750 5749 5746 5744 5743 5742 5740 5740 5739 5738 5737 5736 5734 5733 5729 5727 5729 5729 5729 5729 5728 5726 5726 5724 5723 5722 5721 5720 5718 5716 5715 5713 5711 5709 5708
5764 5762 5760 5757 5755 5753 5751 5750 5747 5745 5743 5742 5741 5739 5737 5736 5734 5733 5732 5731 5730 5731 5728 5725 5724 5725 5724 5724 5722 5721 5720 5719 5718 5718 5717 5715 5713 5712 5710 5708 5707 5705 5703
5760 5757 5755 5753 5751 5750 5748 5746 5744 5742 5740 5739 5738 5737 5735 5733 5731 5730 5729 5727 5726 5724 5722 5719 5718 5718 5717 5717 5715 5713 5712 5712 5712 5712 5711 5710 5708 5706 5705 5704 5702 5700 5699
5756 5753 5751 5749 5747 5745 5745 5742 5740 5738 5735 5734 5733 5733 5732 5731 5729 5727 5725 5722 5720 5717 5715 5713 5711 5710 5709 5708 5707 5707 5705 5704 5705 5706 5704 5704 5702 5700 5699 5699 5697 5696 5694
5750 5747 5744 5743 5742 5742 5741 5739 5737 5734 5731 5729 5727 5726 5726 5725 5724 5723 5721 5719 5717 5713 5709 5706 5705 5703 5704 5704 5704 5702 5699 5696 5695 5700 5697 5697 5696 5694 5694 5694 5693 5691 5689
5743 5741 5739 5737 5736 5736 5735 5734 5732 5729 5726 5724 5722 5720 5720 5719 5718 5715 5714 5713 5711 5710 5708 5704 5700 5700 5699 5700 5698 5696 5693 5691 5690 5693 5690 5688 5689 5688 5689 5689 5688 5686 5684
5736 5734 5732 5731 5729 5730 5729 5728 5726 5723 5721 5719 5718 5716 5713 5711 5710 5707 5705 5703 5703 5702 5701 5699 5697 5697 5696 5696 5693 5691 5689 5687 5686 5686 5684 5680 5682 5682 5683 5682 5682 5680 5678
5728 5727 5726 5724 5722 5723 5723 5721 5719 5716 5713 5712 5711 5710 5707 5704 5703 5701 5697 5694 5694 5694 5695 5694 5693 5692 5691 5690 5688 5684 5680 5677 5675 5676 5677 5674 5674 5673 5674 5675 5675 5673 5671
5721 5719 5718 5717 5716 5715 5715 5713 5711 5708 5705 5703 5702 5702 5701 5698 5696 5693 5689 5686 5684 5685 5685 5685 5684 5684 5683 5683 5681 5678 5674 5670 5667 5667 5670 5667 5666 5663 5663 5666 5666 5665 5663